Regional Weather Roundup
Issued by NWS Upton, NY

Current Version | Previous Version | Graphics & Text | Print | Product List | Glossary Off
Versions: 1 2 3 4 5 6 7 8 9 10 11 12 13 14 15 16 17 18 19 20 21 22 23 24 25 26 27 28 29 30

000
ASUS41 KOKX 270904
RWROKX

REGIONAL WEATHER ROUNDUP
NATIONAL WEATHER SERVICE NEW YORK NY
500 AM EDT SAT AUG 27 2016

NOTE: "FAIR" INDICATES FEW OR NO CLOUDS BELOW 12,000 FEET WITH NO
SIGNIFICANT WEATHER AND/OR OBSTRUCTIONS TO VISIBILITY.

NYZ071-072-176-178-NJZ106-104-271000-
NEW YORK CITY METRO AREA

CITY           SKY/WX    TMP DP  RH WIND       PRES   REMARKS
Central Park     N/A     75  57  53 MISG        N/A
LaGuardia APRT CLEAR     77  61  57 N9        30.11R
Kennedy INTL   PTCLDY    75  61  61 N8        30.11R
Newark/Liberty CLEAR     73  63  70 N7        30.11S
Bronx Bot Gard   N/A     72  57  60 CALM      30.12F
Wall St Helipt SUNNY     79  64  61 NE6       30.12R
Teterboro      CLEAR     70  63  78 N3        30.11R
$$

NYZ177-179-078>081-271000-
LONG ISLAND NEW YORK

CITY           SKY/WX    TMP DP  RH WIND       PRES   REMARKS
Farmingdale    CLEAR     70  61  73 N6        30.11R
MacArthur/ISP  CLEAR     73  61  65 N9        30.10R
Shirley        CLEAR     69  62  78 N3        30.10S
Riverhead      NOT AVBL
Westhampton    CLEAR     69  62  78 N5        30.11R
Southampton      N/A     73  66  78 N3        30.06R
Bridgehampton    N/A     70  64  83 E1        30.08S
East Hampton   FAIR      70  64  81 N6        30.09R
Montauk          N/A     70  67  90 N3        30.10R
$$

NYZ052-065-067-271000-
HUDSON VALLEY

CITY           SKY/WX    TMP DP  RH WIND       PRES   REMARKS
White Plains   CLEAR     69  60  73 N7        30.13R
Newburgh       CLEAR     64  63  94 CALM      30.16R
Montgomery     PTCLDY    61  60  97 CALM      30.15R FOG
Poughkeepsie   CLEAR     60  59  96 CALM      30.14R
Albany         CLEAR     63  60  90 CALM      30.15R
$$

NJZ001-105-106-008-010-013-015-019>022-104-271000-
NEW JERSEY

CITY           SKY/WX    TMP DP  RH WIND       PRES   REMARKS
Newark/Liberty CLEAR     73  63  70 N7        30.11S
Teterboro      CLEAR     70  63  78 N3        30.11R
Caldwell       CLEAR     67  65  93 CALM      30.14R
Morristown     FOG       61  61 100 CALM      30.13R VSB 1/2
Somerville     CLEAR     64  62  93 CALM      30.11R
Linden         FAIR      72  63  72 CALM      30.13R
Sussex         CLEAR     62  61  96 CALM      30.15S
Abdover          N/A     62  61  96 CALM      30.15S
Trenton        CLEAR     70  63  78 NW3       30.12R
Millville      CLEAR     67  66  97 CALM      30.11R
Atlantic City  CLEAR     70  63  78 N3        30.10R
Wrightstown    CLEAR     67  64  87 NW5       30.09R
Toms River     CLEAR     66  63  90 CALM      30.12R
Belmar         CLEAR     71  65  81 NE3       30.12R
$$

PAZ047>061-062-071-271000-
EASTERN PENNSYLVANIA

CITY           SKY/WX    TMP DP  RH WIND       PRES   REMARKS
Philadelphia   CLEAR     74  64  71 N6        30.12R
Allentown      CLEAR     64  61  90 N3        30.14R
Scranton       CLEAR     63  61  93 E5        30.18S
$$

CTZ002-004>006-009-010-012-RIZ004-006-007-MAZ004-011-015-271000-
SOUTHERN NEW ENGLAND
 IN CT

CITY           SKY/WX    TMP DP  RH WIND       PRES   REMARKS
Bradley INTL   CLEAR     67  60  78 CALM      30.13R
Hartford       CLEAR     72  62  71 N3        30.11S
Danbury        CLEAR     59  58  96 CALM      30.15R
Wtrbury/Oxford   N/A     66  55  68 N7        30.15R
Bridgeport     CLEAR     74  59  59 N8        30.10R
Meriden        CLEAR     65  61  87 CALM      30.12R
New Haven      CLEAR     69  60  73 N6        30.11R
Chester        FAIR      70  63  78 N5        30.11S
Groton         CLEAR     71  65  81 N9        30.09R
Wilimantic     CLEAR     65  64  97 CALM      30.12R

 IN RI

CITY           SKY/WX    TMP DP  RH WIND       PRES   REMARKS
Providence     CLEAR     71  61  70 NW5       30.10R
Block Island   CLEAR     72  63  73 NE6       30.10R
Westerly       CLEAR     70  63  78 CALM      30.10R
 IN MA

CITY           SKY/WX    TMP DP  RH WIND       PRES   REMARKS
Boston         CLEAR     73  59  61 NW9       30.09S
Worcester      CLEAR     71  53  52 N5        30.15R
Westfield      CLEAR     61  61 100 CALM      30.13R
Provincetown   CLEAR     69  64  84 N7        30.09R
Nantucket      CLEAR     71  61  70 N13       30.07R
$$

ANZ330-335-338-340-345-350-353-355-271000-
COASTAL MARINE OBSERVATIONS


STATION/POSITION TIME  SKY/WX   TEMP    WIND        PRES    VSBY  WAVE
                                AIR SEA DIR/SP/G                  HT/PER
                 (UTC)          (F)     (DEG/KT/KT) (MB)    (MI)  (FT/S)
NY HARB ENTRANCE 0750            77 75   20/ 10/ 12 1018.8          2/ 8
20S FIRE ISLAND  0750            75 74  360/  8/ 10 1018.3          2/ 8
GREAT SOUTH BAY  0800            75 79  360/  8/ 10   N/A
23 SSW MONTAUK P 0750            75 74  350/ 12/ 14 1018.5          2/ 7
15 E BARNEGAT LI 0800               76                N/A           2/ 8
HUDSON CANYON    0750            80 78              1017.6          3/ 5
KINGS POINT      0800            75 77              1019.2
EXECUTION ROCKS  0800            75     360/ 10/ 12   N/A
CENTRAL LI SOUND 0830            75 75   20/ 10/ 12   N/A           1/ 3
EASTERN LI SOUND 0800            72 71   30/ 10/ 14   N/A
ROBBINS REEF     0800            76     350/  8/ 10 1018.7
$$


>>>>>>>>>>>>>>>>>>>>>>>>>>>> KEY <<<<<<<<<<<<<<<<<<<<<<<<<<<
>                                                          <
>     SKY/WX - Sky Condition/Present Weather               <
>     TMP    - Temperature in Fahrenheit                   <
>     DP     - Dew Point in Fahrenheit                     <
>     RH     - Relative Humidity in Percent                <
>     WIND   - Direction (from) and Speed in MPH           <
>     PRES   - Mean Sea Level Pressure (inches of Hg)      <
>     WCI    - Wind Chill Index                            <
>     VSB    - VISIBILITY IN MILES                         <
>     HX     - HEAT INDEX                                  <
>     TC     - TEMPERATURE IN CELSIUS                      <
>     VRB    - VARIABLE WIND DIRECTION                     <
>                                                          <
>>>>>>>>>>>>>>>>>>>>>>>>>>>> KEY <<<<<<<<<<<<<<<<<<<<<<<<<<<




USA.gov is the U.S. government's official web portal to all federal, state and local government web resources and services.